This is the latest recevied weather packets stored in our database for station/object CA3DPI. If no packets are shown the sender has not sent any weather packets the latest 10 day(s).
| Time | Temp. | Humidity | Pressure | Rain* | Wind** | Luminosity | Snow |
|---|---|---|---|---|---|---|---|
| 1777607810 | 15° C | 56% | 1020.5 hPa | - | - | - | - |
| 1777607210 | 14.44° C | 55% | 1020.5 hPa | - | - | - | - |
| 1777606610 | 14.44° C | 57% | 1020.4 hPa | - | - | - | - |
| 1777606009 | 14.44° C | 59% | 1020.3 hPa | - | - | - | - |
| 1777605409 | 14.44° C | 58% | 1020.4 hPa | - | - | - | - |
| 1777605020 | 14.44° C | 60% | 1020.3 hPa | - | - | - | - |
| 1777604809 | 14.44° C | 60% | 1020.3 hPa | - | - | - | - |
| 1777604209 | 14.44° C | 54% | 1020.2 hPa | - | - | - | - |
| 1777603609 | 15° C | 60% | 1020.2 hPa | - | - | - | - |
| 1777603016 | 15° C | 55% | 1020.1 hPa | - | - | - | - |
| 1777602416 | 15° C | 56% | 1019.9 hPa | - | - | - | - |
| 1777601816 | 15° C | 55% | 1019.8 hPa | - | - | - | - |
| 1777601216 | 14.44° C | 57% | 1019.7 hPa | - | - | - | - |
| 1777600615 | 15° C | 52% | 1019.5 hPa | - | - | - | - |
| 1777600015 | 15.56° C | 55% | 1019.4 hPa | - | - | - | - |
| 1777599415 | 15° C | 53% | 1019.3 hPa | - | - | - | - |
| 1777598815 | 15° C | 55% | 1019.1 hPa | - | - | - | - |
| 1777598215 | 15.56° C | 56% | 1019 hPa | - | - | - | - |
| 1777597615 | 15° C | 58% | 1019 hPa | - | - | - | - |
| 1777597014 | 15° C | 60% | 1018.9 hPa | - | - | - | - |
| 1777596414 | 15.56° C | 57% | 1019 hPa | - | - | - | - |
| 1777595814 | 15.56° C | 55% | 1018.8 hPa | - | - | - | - |
| 1777595214 | 15.56° C | 54% | 1018.7 hPa | - | - | - | - |
| 1777594614 | 15.56° C | 55% | 1018.6 hPa | - | - | - | - |
| 1777594014 | 15.56° C | 57% | 1018.4 hPa | - | - | - | - |
* Rain since midnight (hover to see other rain measurements)
** Current wind speed in m/s (hover to see current wind gust speed)